| time (UTC) | temp F | wind direction | speed MPH | gust MPH | rain 1hr in | rain 24hr in | rain mn in | humidity % | barometer mb |
| 20260510021049 | 54 | 107 | 1.0 | 2.0 | 0.00 | 0.00 | 0.00 | 74 | 1011.4 |
| 20260510020544 | 54 | 174 | 0.0 | 1.0 | 0.00 | 0.00 | 0.00 | 73 | 1011.5 |
| 20260510020040 | 53 | 92 | 2.0 | 2.0 | 0.00 | 0.00 | 0.00 | 74 | 1011.3 |
| 20260510015536 | 53 | 210 | 2.0 | 2.0 | 0.00 | 0.00 | 0.00 | 73 | 1011.3 |
| 20260510015032 | 54 | 154 | 0.0 | 0.0 | 0.00 | 0.00 | 0.00 | 74 | 1011.1 |
| 20260510014528 | 54 | 172 | 0.0 | 2.0 | 0.00 | 0.00 | 0.00 | 74 | 1011.1 |
| 20260510014026 | 54 | 163 | 0.0 | 0.0 | 0.00 | 0.00 | 0.00 | 73 | 1010.8 |
| 20260510013520 | 55 | 177 | 0.0 | 2.0 | 0.00 | 0.00 | 0.00 | 70 | 1010.9 |
| 20260510013017 | 56 | 154 | 0.0 | 0.0 | 0.00 | 0.00 | 0.00 | 68 | 1010.9 |
| 20260510012516 | 56 | 155 | 0.0 | 0.0 | 0.00 | 0.00 | 0.00 | 66 | 1010.8 |
| 20260510012013 | 56 | 121 | 0.0 | 1.0 | 0.00 | 0.00 | 0.00 | 66 | 1010.5 |
| 20260510011507 | 56 | 137 | 0.0 | 0.0 | 0.00 | 0.00 | 0.00 | 65 | 1010.5 |
| 20260510011003 | 57 | 124 | 1.0 | 1.0 | 0.00 | 0.00 | 0.00 | 65 | 1010.6 |
| 20260510010500 | 57 | 158 | 0.0 | 0.0 | 0.00 | 0.00 | 0.00 | 66 | 1010.5 |
| 20260510005957 | 57 | 101 | 1.0 | 2.0 | 0.00 | 0.00 | 0.00 | 63 | 1010.3 |
| 20260510005453 | 57 | 155 | 0.0 | 1.0 | 0.00 | 0.00 | 0.00 | 64 | 1010.3 |
| 20260510004951 | 58 | 154 | 1.0 | 1.0 | 0.00 | 0.00 | 0.00 | 64 | 1010.2 |
| 20260510004447 | 59 | 157 | 0.0 | 1.0 | 0.00 | 0.00 | 0.00 | 61 | 1010.1 |
| 20260510003946 | 60 | 157 | 0.0 | 1.0 | 0.00 | 0.00 | 0.00 | 59 | 1010.0 |
| 20260510003442 | 60 | 117 | 1.0 | 3.0 | 0.00 | 0.00 | 0.00 | 59 | 1009.9 |
| 20260510002942 | 60 | 151 | 0.0 | 0.0 | 0.00 | 0.00 | 0.00 | 59 | 1009.7 |
| 20260510002439 | 61 | 149 | 0.0 | 1.0 | 0.00 | 0.00 | 0.00 | 57 | 1009.6 |
| 20260510001935 | 62 | 121 | 0.0 | 1.0 | 0.00 | 0.00 | 0.00 | 56 | 1009.4 |
| 20260510001433 | 62 | 157 | 0.0 | 0.0 | 0.00 | 0.00 | 0.00 | 56 | 1009.4 |
| 20260510000930 | 64 | 156 | 0.0 | 1.0 | 0.00 | 0.00 | 0.00 | 54 | 1009.5 |
| 20260510000427 | 66 | 79 | 2.0 | 2.0 | 0.00 | 0.00 | 0.00 | 48 | 1009.4 |
| 20260509235923 | 67 | 93 | 1.0 | 2.0 | 0.00 | 0.00 | 0.00 | 47 | 1009.3 |
| 20260509235420 | 69 | 132 | 1.0 | 2.0 | 0.00 | 0.00 | 0.00 | 46 | 1009.3 |
| 20260509234916 | 71 | 123 | 0.0 | 0.0 | 0.00 | 0.00 | 0.00 | 43 | 1009.4 |
| 20260509234413 | 72 | 169 | 0.0 | 0.0 | 0.00 | 0.00 | 0.00 | 38 | 1009.3 |
| 20260509233911 | 72 | 176 | 0.0 | 0.0 | 0.00 | 0.00 | 0.00 | 37 | 1009.2 |
| 20260509233408 | 71 | 180 | 0.0 | 3.0 | 0.00 | 0.00 | 0.00 | 38 | 1009.4 |
| 20260509232904 | 71 | 204 | 2.0 | 4.0 | 0.00 | 0.00 | 0.00 | 37 | 1009.3 |
| 20260509232402 | 71 | 248 | 4.0 | 4.0 | 0.00 | 0.00 | 0.00 | 36 | 1009.2 |
| 20260509231858 | 72 | 222 | 3.0 | 4.0 | 0.00 | 0.00 | 0.00 | 36 | 1009.0 |
| 20260509231355 | 73 | 252 | 5.0 | 9.0 | 0.00 | 0.00 | 0.00 | 35 | 1009.0 |
| 20260509230853 | 72 | 250 | 4.0 | 6.0 | 0.00 | 0.00 | 0.00 | 37 | 1008.9 |
| 20260509230349 | 72 | 221 | 2.0 | 6.0 | 0.00 | 0.00 | 0.00 | 37 | 1009.0 |
| 20260509225845 | 72 | 227 | 1.0 | 2.0 | 0.00 | 0.00 | 0.00 | 35 | 1008.9 |
| 20260509225342 | 73 | 237 | 2.0 | 3.0 | 0.00 | 0.00 | 0.00 | 35 | 1008.9 |
| 20260509224838 | 73 | 232 | 3.0 | 4.0 | 0.00 | 0.00 | 0.00 | 35 | 1008.9 |
| 20260509224334 | 73 | 269 | 5.0 | 6.0 | 0.00 | 0.00 | 0.00 | 35 | 1008.9 |
| 20260509223831 | 73 | 256 | 6.0 | 8.0 | 0.00 | 0.00 | 0.00 | 34 | 1008.8 |
| 20260509223327 | 73 | 173 | 4.0 | 6.0 | 0.00 | 0.00 | 0.00 | 35 | 1008.9 |
| 20260509222825 | 73 | 255 | 6.0 | 9.0 | 0.00 | 0.00 | 0.00 | 34 | 1009.0 |
| 20260509222320 | 73 | 253 | 4.0 | 8.0 | 0.00 | 0.00 | 0.00 | 34 | 1008.9 |
| 20260509221815 | 73 | 272 | 4.0 | 6.0 | 0.00 | 0.00 | 0.00 | 34 | 1008.9 |
| 20260509221314 | 73 | 228 | 5.0 | 8.0 | 0.00 | 0.00 | 0.00 | 33 | 1008.8 |
| 20260509220814 | 73 | 224 | 4.0 | 7.0 | 0.00 | 0.00 | 0.00 | 34 | 1008.8 |
| 20260509220310 | 73 | 213 | 4.0 | 8.0 | 0.00 | 0.00 | 0.00 | 34 | 1009.0 |
| 20260509215806 | 73 | 257 | 5.0 | 7.0 | 0.00 | 0.00 | 0.00 | 35 | 1009.0 |
| 20260509215305 | 73 | 222 | 4.0 | 9.0 | 0.00 | 0.00 | 0.00 | 35 | 1008.8 |
| 20260509214759 | 72 | 249 | 6.0 | 8.0 | 0.00 | 0.00 | 0.00 | 36 | 1008.8 |
| 20260509214257 | 73 | 239 | 4.0 | 4.0 | 0.00 | 0.00 | 0.00 | 35 | 1008.6 |
| 20260509213754 | 73 | 203 | 2.0 | 7.0 | 0.00 | 0.00 | 0.00 | 36 | 1008.7 |
| 20260509213249 | 73 | 219 | 2.0 | 6.0 | 0.00 | 0.00 | 0.00 | 35 | 1008.7 |
| 20260509212747 | 72 | 206 | 1.0 | 3.0 | 0.00 | 0.00 | 0.00 | 36 | 1008.4 |
| 20260509212244 | 72 | 187 | 4.0 | 9.0 | 0.00 | 0.00 | 0.00 | 36 | 1008.4 |
| 20260509211739 | 73 | 254 | 6.0 | 7.0 | 0.00 | 0.00 | 0.00 | 35 | 1008.5 |
| 20260509211236 | 73 | 249 | 6.0 | 8.0 | 0.00 | 0.00 | 0.00 | 35 | 1008.4 |
| 20260509210732 | 73 | 232 | 4.0 | 8.0 | 0.00 | 0.00 | 0.00 | 33 | 1008.5 |
| 20260509210231 | 73 | 228 | 4.0 | 7.0 | 0.00 | 0.00 | 0.00 | 34 | 1008.3 |
| 20260509205730 | 73 | 243 | 5.0 | 9.0 | 0.00 | 0.00 | 0.00 | 34 | 1008.3 |
| 20260509205230 | 72 | 214 | 4.0 | 10.0 | 0.00 | 0.00 | 0.00 | 33 | 1008.4 |
| 20260509204726 | 72 | 241 | 4.0 | 6.0 | 0.00 | 0.00 | 0.00 | 36 | 1008.3 |
| 20260509204223 | 72 | 248 | 5.0 | 6.0 | 0.00 | 0.00 | 0.00 | 35 | 1008.3 |
| 20260509203718 | 73 | 210 | 2.0 | 2.0 | 0.00 | 0.00 | 0.00 | 35 | 1008.3 |
| 20260509203217 | 73 | 144 | 1.0 | 9.0 | 0.00 | 0.00 | 0.00 | 38 | 1008.2 |
| 20260509202712 | 74 | 169 | 1.0 | 9.0 | 0.00 | 0.00 | 0.00 | 39 | 1008.2 |
| 20260509202207 | 74 | 179 | 1.0 | 3.0 | 0.00 | 0.00 | 0.00 | 42 | 1008.1 |
| 20260509201703 | 75 | 116 | 2.0 | 6.0 | 0.00 | 0.00 | 0.00 | 39 | 1008.3 |
| 20260509201200 | 75 | 157 | 2.0 | 7.0 | 0.00 | 0.00 | 0.00 | 41 | 1008.0 |
| 20260509200657 | 75 | 170 | 3.0 | 8.0 | 0.00 | 0.00 | 0.00 | 40 | 1008.4 |
| 20260509200157 | 74 | 176 | 2.0 | 8.0 | 0.00 | 0.00 | 0.00 | 38 | 1008.2 |
| 20260509195653 | 73 | 162 | 4.0 | 7.0 | 0.00 | 0.00 | 0.00 | 39 | 1008.2 |
| 20260509195149 | 73 | 236 | 4.0 | 9.0 | 0.00 | 0.00 | 0.00 | 39 | 1008.3 |
| 20260509194648 | 72 | 210 | 4.0 | 7.0 | 0.00 | 0.00 | 0.00 | 37 | 1008.4 |
| 20260509194146 | 72 | 140 | 2.0 | 7.0 | 0.00 | 0.00 | 0.00 | 38 | 1008.4 |
| 20260509193641 | 73 | 235 | 2.0 | 6.0 | 0.00 | 0.00 | 0.00 | 39 | 1008.5 |
| 20260509193137 | 74 | 219 | 3.0 | 7.0 | 0.00 | 0.00 | 0.00 | 37 | 1008.7 |
| 20260509192634 | 74 | 249 | 5.0 | 10.0 | 0.00 | 0.00 | 0.00 | 39 | 1008.6 |
| 20260509192130 | 73 | 231 | 3.0 | 6.0 | 0.00 | 0.00 | 0.00 | 36 | 1008.7 |
| 20260509191629 | 72 | 137 | 6.0 | 13.0 | 0.00 | 0.00 | 0.00 | 39 | 1008.9 |
| 20260509191126 | 73 | 234 | 6.0 | 8.0 | 0.00 | 0.00 | 0.00 | 37 | 1008.8 |
| 20260509190622 | 75 | 226 | 5.0 | 15.0 | 0.00 | 0.00 | 0.00 | 36 | 1008.8 |
| 20260509190120 | 74 | 247 | 4.0 | 9.0 | 0.00 | 0.00 | 0.00 | 37 | 1008.8 |
| 20260509185617 | 74 | 144 | 5.0 | 14.0 | 0.00 | 0.00 | 0.00 | 38 | 1009.0 |
| 20260509185113 | 74 | 245 | 6.0 | 7.0 | 0.00 | 0.00 | 0.00 | 38 | 1009.0 |
| 20260509184612 | 73 | 251 | 5.0 | 7.0 | 0.00 | 0.00 | 0.00 | 41 | 1008.9 |
| 20260509184108 | 73 | 195 | 4.0 | 11.0 | 0.00 | 0.00 | 0.00 | 43 | 1009.2 |
| 20260509183604 | 73 | 136 | 4.0 | 6.0 | 0.00 | 0.00 | 0.00 | 40 | 1009.2 |
| 20260509183059 | 72 | 217 | 5.0 | 10.0 | 0.00 | 0.00 | 0.00 | 42 | 1009.3 |
| 20260509182556 | 74 | 233 | 8.0 | 10.0 | 0.00 | 0.00 | 0.00 | 38 | 1009.3 |
| 20260509182053 | 74 | 124 | 4.0 | 10.0 | 0.00 | 0.00 | 0.00 | 38 | 1009.5 |
| 20260509181552 | 74 | 237 | 2.0 | 8.0 | 0.00 | 0.00 | 0.00 | 40 | 1009.5 |
| 20260509181048 | 72 | 208 | 3.0 | 8.0 | 0.00 | 0.00 | 0.00 | 40 | 1009.6 |
| 20260509180544 | 72 | 249 | 3.0 | 8.0 | 0.00 | 0.00 | 0.00 | 42 | 1009.7 |
| 20260509180041 | 72 | 161 | 4.0 | 7.0 | 0.00 | 0.00 | 0.00 | 44 | 1009.8 |
| 20260509175537 | 71 | 171 | 4.0 | 4.0 | 0.00 | 0.00 | 0.00 | 46 | 1010.0 |
| 20260509175034 | 70 | 129 | 5.0 | 9.0 | 0.00 | 0.00 | 0.00 | 45 | 1009.9 |
| 20260509174530 | 70 | 144 | 6.0 | 7.0 | 0.00 | 0.00 | 0.00 | 47 | 1010.2 |
| 20260509174026 | 70 | 167 | 1.0 | 9.0 | 0.00 | 0.00 | 0.00 | 52 | 1010.2 |
| 20260509173520 | 69 | 213 | 1.0 | 3.0 | 0.00 | 0.00 | 0.00 | 49 | 1010.3 |
| 20260509173016 | 69 | 168 | 1.0 | 3.0 | 0.00 | 0.00 | 0.00 | 51 | 1010.3 |
| 20260509172514 | 69 | 168 | 1.0 | 4.0 | 0.00 | 0.00 | 0.00 | 49 | 1010.2 |
| 20260509172009 | 68 | 144 | 1.0 | 3.0 | 0.00 | 0.00 | 0.00 | 50 | 1010.1 |
| 20260509171506 | 68 | 158 | 0.0 | 3.0 | 0.00 | 0.00 | 0.00 | 49 | 1010.4 |
| 20260509171002 | 68 | 134 | 4.0 | 4.0 | 0.00 | 0.00 | 0.00 | 49 | 1010.3 |
| 20260509170458 | 68 | 157 | 2.0 | 2.0 | 0.00 | 0.00 | 0.00 | 51 | 1010.4 |
| 20260509165954 | 68 | 159 | 2.0 | 4.0 | 0.00 | 0.00 | 0.00 | 49 | 1010.4 |
| 20260509165453 | 68 | 179 | 2.0 | 2.0 | 0.00 | 0.00 | 0.00 | 48 | 1010.6 |
| 20260509164949 | 68 | 152 | 0.0 | 2.0 | 0.00 | 0.00 | 0.00 | 49 | 1010.7 |
| 20260509164444 | 67 | 168 | 2.0 | 2.0 | 0.00 | 0.00 | 0.00 | 48 | 1010.5 |
| 20260509163941 | 67 | 150 | 0.0 | 4.0 | 0.00 | 0.00 | 0.00 | 48 | 1010.6 |
| 20260509163438 | 68 | 170 | 4.0 | 6.0 | 0.00 | 0.00 | 0.00 | 48 | 1010.7 |
| 20260509162937 | 68 | 174 | 0.0 | 1.0 | 0.00 | 0.00 | 0.00 | 53 | 1010.7 |
| 20260509162437 | 68 | 240 | 3.0 | 4.0 | 0.00 | 0.00 | 0.00 | 50 | 1010.6 |
| 20260509161932 | 68 | 163 | 4.0 | 6.0 | 0.00 | 0.00 | 0.00 | 47 | 1010.5 |
| 20260509161428 | 67 | 165 | 6.0 | 7.0 | 0.00 | 0.00 | 0.00 | 50 | 1010.4 |
| 20260509160924 | 68 | 202 | 1.0 | 3.0 | 0.00 | 0.00 | 0.00 | 48 | 1010.8 |
| 20260509160420 | 67 | 181 | 1.0 | 9.0 | 0.00 | 0.00 | 0.00 | 51 | 1010.5 |
| 20260509155915 | 67 | 170 | 1.0 | 4.0 | 0.00 | 0.00 | 0.00 | 48 | 1010.7 |
| 20260509155412 | 67 | 186 | 2.0 | 4.0 | 0.00 | 0.00 | 0.00 | 49 | 1010.7 |
| 20260509154909 | 67 | 185 | 2.0 | 4.0 | 0.00 | 0.00 | 0.00 | 49 | 1010.7 |
| 20260509154405 | 67 | 211 | 1.0 | 4.0 | 0.00 | 0.00 | 0.00 | 51 | 1010.6 |
| 20260509153902 | 67 | 184 | 2.0 | 4.0 | 0.00 | 0.00 | 0.00 | 48 | 1010.8 |
| 20260509153359 | 67 | 164 | 2.0 | 6.0 | 0.00 | 0.00 | 0.00 | 48 | 1010.6 |
| 20260509152856 | 67 | 146 | 3.0 | 4.0 | 0.00 | 0.00 | 0.00 | 46 | 1010.4 |
| 20260509152352 | 68 | 126 | 4.0 | 7.0 | 0.00 | 0.00 | 0.00 | 46 | 1010.3 |
| 20260509151849 | 68 | 160 | 1.0 | 4.0 | 0.00 | 0.00 | 0.00 | 46 | 1010.5 |
| 20260509151345 | 68 | 192 | 1.0 | 4.0 | 0.00 | 0.00 | 0.00 | 47 | 1010.3 |
| 20260509150844 | 68 | 198 | 1.0 | 3.0 | 0.00 | 0.00 | 0.00 | 49 | 1010.4 |
| 20260509150341 | 68 | 176 | 0.0 | 2.0 | 0.00 | 0.00 | 0.00 | 48 | 1010.3 |
| 20260509145839 | 67 | 173 | 0.0 | 1.0 | 0.00 | 0.00 | 0.00 | 45 | 1010.4 |
| 20260509145338 | 68 | 213 | 3.0 | 6.0 | 0.00 | 0.00 | 0.00 | 48 | 1010.3 |
| 20260509144835 | 67 | 227 | 2.0 | 3.0 | 0.00 | 0.00 | 0.00 | 50 | 1010.4 |
| 20260509144332 | 67 | 231 | 5.0 | 7.0 | 0.00 | 0.00 | 0.00 | 48 | 1010.6 |
| 20260509143829 | 67 | 222 | 5.0 | 6.0 | 0.00 | 0.00 | 0.00 | 49 | 1010.5 |
| 20260509143327 | 67 | 224 | 4.0 | 8.0 | 0.00 | 0.00 | 0.00 | 51 | 1010.4 |
| 20260509142822 | 67 | 207 | 1.0 | 4.0 | 0.00 | 0.00 | 0.00 | 49 | 1010.4 |
| 20260509142319 | 66 | 205 | 3.0 | 4.0 | 0.00 | 0.00 | 0.00 | 53 | 1010.5 |
| 20260509141814 | 66 | 162 | 1.0 | 4.0 | 0.00 | 0.00 | 0.00 | 54 | 1010.7 |
| 20260509141312 | 66 | 206 | 5.0 | 7.0 | 0.00 | 0.00 | 0.00 | 51 | 1010.8 |
| 20260509140808 | 65 | 157 | 5.0 | 8.0 | 0.00 | 0.00 | 0.00 | 53 | 1011.0 |
| 20260509140305 | 64 | 197 | 2.0 | 6.0 | 0.00 | 0.00 | 0.00 | 55 | 1011.0 |
| 20260509135803 | 63 | 186 | 1.0 | 2.0 | 0.00 | 0.00 | 0.00 | 56 | 1011.2 |
| 20260509135300 | 62 | 226 | 3.0 | 3.0 | 0.00 | 0.00 | 0.00 | 55 | 1011.4 |
| 20260509134758 | 62 | 223 | 1.0 | 3.0 | 0.00 | 0.00 | 0.00 | 55 | 1011.3 |
| 20260509134255 | 62 | 183 | 1.0 | 4.0 | 0.00 | 0.00 | 0.00 | 55 | 1011.4 |
| 20260509133752 | 61 | 167 | 2.0 | 8.0 | 0.00 | 0.00 | 0.00 | 56 | 1011.6 |
| 20260509133248 | 61 | 189 | 2.0 | 6.0 | 0.00 | 0.00 | 0.00 | 57 | 1011.6 |
| 20260509132747 | 61 | 78 | 2.0 | 3.0 | 0.00 | 0.00 | 0.00 | 58 | 1011.6 |
| 20260509132246 | 61 | 196 | 2.0 | 6.0 | 0.00 | 0.00 | 0.00 | 56 | 1011.7 |
| 20260509131742 | 60 | 127 | 2.0 | 4.0 | 0.00 | 0.00 | 0.00 | 54 | 1011.6 |
| 20260509131238 | 60 | 163 | 4.0 | 7.0 | 0.00 | 0.00 | 0.00 | 55 | 1011.7 |
| 20260509130735 | 60 | 240 | 1.0 | 2.0 | 0.00 | 0.00 | 0.00 | 58 | 1011.3 |
| 20260509130230 | 60 | 181 | 2.0 | 2.0 | 0.00 | 0.00 | 0.00 | 58 | 1011.4 |
| 20260509125727 | 60 | 177 | 1.0 | 4.0 | 0.00 | 0.00 | 0.00 | 56 | 1011.4 |
| 20260509125224 | 60 | 183 | 3.0 | 8.0 | 0.00 | 0.00 | 0.00 | 55 | 1011.4 |
| 20260509124720 | 59 | 161 | 3.0 | 3.0 | 0.00 | 0.00 | 0.00 | 56 | 1011.3 |
| 20260509124217 | 59 | 245 | 2.0 | 8.0 | 0.00 | 0.00 | 0.00 | 56 | 1011.3 |
| 20260509123716 | 59 | 195 | 1.0 | 1.0 | 0.00 | 0.00 | 0.00 | 60 | 1011.3 |
| 20260509123212 | 59 | 211 | 2.0 | 3.0 | 0.00 | 0.00 | 0.00 | 57 | 1011.4 |
| 20260509122708 | 59 | 185 | 1.0 | 2.0 | 0.00 | 0.00 | 0.00 | 57 | 1011.3 |
| 20260509122205 | 58 | 204 | 3.0 | 3.0 | 0.00 | 0.00 | 0.00 | 56 | 1011.4 |
| 20260509121701 | 58 | 180 | 0.0 | 0.0 | 0.00 | 0.00 | 0.00 | 56 | 1011.4 |
| 20260509121159 | 58 | 203 | 3.0 | 6.0 | 0.00 | 0.00 | 0.00 | 56 | 1011.6 |
| 20260509120657 | 58 | 164 | 0.0 | 2.0 | 0.00 | 0.00 | 0.00 | 57 | 1011.6 |
| 20260509120155 | 57 | 151 | 0.0 | 1.0 | 0.00 | 0.00 | 0.00 | 56 | 1011.6 |
| 20260509115652 | 57 | 163 | 0.0 | 1.0 | 0.00 | 0.00 | 0.00 | 58 | 1011.5 |
| 20260509115149 | 57 | 183 | 1.0 | 1.0 | 0.00 | 0.00 | 0.00 | 56 | 1011.5 |
| 20260509114648 | 57 | 160 | 0.0 | 2.0 | 0.00 | 0.00 | 0.00 | 56 | 1011.6 |
| 20260509114147 | 57 | 167 | 0.0 | 1.0 | 0.00 | 0.00 | 0.00 | 56 | 1011.5 |
| 20260509113644 | 57 | 209 | 1.0 | 3.0 | 0.00 | 0.00 | 0.00 | 55 | 1011.4 |
| 20260509113141 | 57 | 184 | 3.0 | 4.0 | 0.00 | 0.00 | 0.00 | 54 | 1011.4 |
| 20260509112638 | 57 | 212 | 1.0 | 2.0 | 0.00 | 0.00 | 0.00 | 54 | 1011.4 |
| 20260509112135 | 57 | 162 | 0.0 | 1.0 | 0.00 | 0.00 | 0.00 | 53 | 1011.5 |
| 20260509111632 | 57 | 253 | 1.0 | 3.0 | 0.00 | 0.00 | 0.00 | 55 | 1011.4 |
| 20260509111129 | 57 | 159 | 2.0 | 4.0 | 0.00 | 0.00 | 0.00 | 53 | 1011.4 |
| 20260509110626 | 56 | 164 | 2.0 | 2.0 | 0.00 | 0.00 | 0.00 | 53 | 1011.3 |
| 20260509110123 | 56 | 175 | 0.0 | 1.0 | 0.00 | 0.00 | 0.00 | 54 | 1011.4 |
| 20260509105621 | 56 | 188 | 0.0 | 1.0 | 0.00 | 0.00 | 0.00 | 53 | 1011.4 |
| 20260509105119 | 56 | 202 | 1.0 | 2.0 | 0.00 | 0.00 | 0.00 | 53 | 1011.3 |
| 20260509104615 | 56 | 200 | 1.0 | 2.0 | 0.00 | 0.00 | 0.00 | 54 | 1011.4 |
| 20260509104112 | 56 | 164 | 1.0 | 2.0 | 0.00 | 0.00 | 0.00 | 53 | 1011.4 |
| 20260509103610 | 56 | 156 | 0.0 | 2.0 | 0.00 | 0.00 | 0.00 | 54 | 1011.4 |
| 20260509103108 | 56 | 183 | 0.0 | 1.0 | 0.00 | 0.00 | 0.00 | 53 | 1011.4 |
| 20260509102605 | 56 | 192 | 1.0 | 2.0 | 0.00 | 0.00 | 0.00 | 53 | 1011.3 |
| 20260509102102 | 56 | 176 | 0.0 | 2.0 | 0.00 | 0.00 | 0.00 | 51 | 1011.4 |
| 20260509101558 | 56 | 179 | 1.0 | 4.0 | 0.00 | 0.00 | 0.00 | 51 | 1011.4 |
| 20260509101055 | 56 | 171 | 1.0 | 4.0 | 0.00 | 0.00 | 0.00 | 51 | 1011.4 |
| 20260509100552 | 56 | 124 | 2.0 | 6.0 | 0.00 | 0.00 | 0.00 | 52 | 1011.4 |
| 20260509100049 | 56 | 171 | 0.0 | 4.0 | 0.00 | 0.00 | 0.00 | 51 | 1011.5 |
| 20260509095545 | 56 | 162 | 2.0 | 3.0 | 0.00 | 0.00 | 0.00 | 51 | 1011.6 |
| 20260509095043 | 57 | 193 | 0.0 | 7.0 | 0.00 | 0.00 | 0.00 | 51 | 1011.6 |
| 20260509094539 | 57 | 210 | 4.0 | 6.0 | 0.00 | 0.00 | 0.00 | 50 | 1011.5 |
| 20260509094037 | 57 | 168 | 2.0 | 7.0 | 0.00 | 0.00 | 0.00 | 50 | 1011.4 |
| 20260509093535 | 57 | 184 | 2.0 | 2.0 | 0.00 | 0.00 | 0.00 | 50 | 1011.5 |
| 20260509093032 | 57 | 171 | 0.0 | 6.0 | 0.00 | 0.00 | 0.00 | 51 | 1011.6 |
| 20260509092530 | 57 | 145 | 6.0 | 8.0 | 0.00 | 0.00 | 0.00 | 50 | 1011.5 |
| 20260509092029 | 56 | 162 | 5.0 | 8.0 | 0.00 | 0.00 | 0.00 | 50 | 1011.5 |
| 20260509091525 | 57 | 160 | 4.0 | 6.0 | 0.00 | 0.00 | 0.00 | 50 | 1011.5 |
| 20260509091022 | 57 | 189 | 3.0 | 7.0 | 0.00 | 0.00 | 0.00 | 50 | 1011.7 |
| 20260509090519 | 57 | 157 | 2.0 | 7.0 | 0.00 | 0.00 | 0.00 | 49 | 1011.6 |
| 20260509090017 | 57 | 51 | 2.0 | 6.0 | 0.00 | 0.00 | 0.00 | 49 | 1011.6 |
| 20260509085514 | 57 | 154 | 3.0 | 4.0 | 0.00 | 0.00 | 0.00 | 49 | 1011.7 |
| 20260509085010 | 56 | 169 | 0.0 | 1.0 | 0.00 | 0.00 | 0.00 | 50 | 1011.9 |
| 20260509084507 | 57 | 157 | 0.0 | 2.0 | 0.00 | 0.00 | 0.00 | 50 | 1011.5 |
| 20260509084004 | 57 | 174 | 0.0 | 2.0 | 0.00 | 0.00 | 0.00 | 50 | 1011.9 |
| 20260509083501 | 57 | 206 | 2.0 | 3.0 | 0.00 | 0.00 | 0.00 | 50 | 1011.7 |
| 20260509082957 | 57 | 167 | 0.0 | 3.0 | 0.00 | 0.00 | 0.00 | 50 | 1011.7 |
| 20260509082455 | 57 | 179 | 1.0 | 4.0 | 0.00 | 0.00 | 0.00 | 50 | 1011.9 |
| 20260509081952 | 57 | 154 | 0.0 | 3.0 | 0.00 | 0.00 | 0.00 | 49 | 1012.0 |
| 20260509081449 | 57 | 202 | 2.0 | 3.0 | 0.00 | 0.00 | 0.00 | 49 | 1011.9 |
| 20260509080946 | 57 | 176 | 3.0 | 4.0 | 0.00 | 0.00 | 0.00 | 49 | 1012.0 |
| 20260509080445 | 57 | 204 | 2.0 | 4.0 | 0.00 | 0.00 | 0.00 | 49 | 1011.9 |
| 20260509075942 | 57 | 170 | 1.0 | 2.0 | 0.00 | 0.00 | 0.00 | 50 | 1012.0 |
| 20260509075439 | 57 | 159 | 0.0 | 2.0 | 0.00 | 0.00 | 0.00 | 49 | 1012.1 |
| 20260509074937 | 57 | 170 | 0.0 | 4.0 | 0.00 | 0.00 | 0.00 | 50 | 1012.3 |
| 20260509074434 | 57 | 173 | 1.0 | 3.0 | 0.00 | 0.00 | 0.00 | 49 | 1012.1 |
| 20260509073930 | 57 | 170 | 2.0 | 3.0 | 0.00 | 0.00 | 0.00 | 49 | 1012.1 |
| 20260509073427 | 57 | 230 | 0.0 | 2.0 | 0.00 | 0.00 | 0.00 | 49 | 1012.2 |
| 20260509072924 | 57 | 166 | 1.0 | 3.0 | 0.00 | 0.00 | 0.00 | 48 | 1012.3 |
| 20260509072421 | 57 | 209 | 1.0 | 3.0 | 0.00 | 0.00 | 0.00 | 49 | 1012.3 |
| 20260509071917 | 57 | 131 | 1.0 | 6.0 | 0.00 | 0.00 | 0.00 | 48 | 1012.4 |
| 20260509071414 | 57 | 249 | 1.0 | 3.0 | 0.00 | 0.00 | 0.00 | 48 | 1012.1 |
| 20260509070912 | 57 | 229 | 3.0 | 4.0 | 0.00 | 0.00 | 0.00 | 48 | 1012.3 |
| 20260509070408 | 57 | 194 | 1.0 | 2.0 | 0.00 | 0.00 | 0.00 | 50 | 1012.3 |
| 20260509065903 | 57 | 58 | 0.0 | 1.0 | 0.00 | 0.00 | 0.00 | 49 | 1012.3 |
| 20260509065400 | 57 | 210 | 2.0 | 4.0 | 0.00 | 0.00 | 0.00 | 49 | 1012.4 |
| 20260509064856 | 57 | 183 | 0.0 | 0.0 | 0.00 | 0.00 | 0.00 | 49 | 1012.4 |
| 20260509064354 | 57 | 172 | 1.0 | 6.0 | 0.00 | 0.00 | 0.00 | 48 | 1012.3 |
| 20260509063852 | 57 | 137 | 1.0 | 3.0 | 0.00 | 0.00 | 0.00 | 48 | 1012.6 |
| 20260509063347 | 57 | 173 | 0.0 | 4.0 | 0.00 | 0.00 | 0.00 | 49 | 1012.4 |
| 20260509062845 | 56 | 162 | 1.0 | 2.0 | 0.00 | 0.00 | 0.00 | 50 | 1012.6 |
| 20260509062342 | 56 | 166 | 0.0 | 2.0 | 0.00 | 0.00 | 0.00 | 51 | 1012.6 |
| 20260509061839 | 56 | 158 | 0.0 | 2.0 | 0.00 | 0.00 | 0.00 | 52 | 1012.6 |
| 20260509061337 | 56 | 194 | 1.0 | 3.0 | 0.00 | 0.00 | 0.00 | 52 | 1012.7 |
| 20260509060834 | 56 | 192 | 2.0 | 2.0 | 0.00 | 0.00 | 0.00 | 51 | 1012.8 |
| 20260509060331 | 56 | 197 | 0.0 | 2.0 | 0.00 | 0.00 | 0.00 | 51 | 1012.8 |
| 20260509055826 | 56 | 183 | 1.0 | 2.0 | 0.00 | 0.00 | 0.00 | 52 | 1012.7 |
| 20260509055321 | 56 | 166 | 0.0 | 1.0 | 0.00 | 0.00 | 0.00 | 51 | 1012.9 |
| 20260509054819 | 56 | 173 | 1.0 | 1.0 | 0.00 | 0.00 | 0.00 | 51 | 1012.8 |
| 20260509054315 | 56 | 187 | 1.0 | 2.0 | 0.00 | 0.00 | 0.00 | 50 | 1012.9 |
| 20260509053814 | 56 | 163 | 2.0 | 4.0 | 0.00 | 0.00 | 0.00 | 51 | 1013.0 |
| 20260509053310 | 56 | 164 | 2.0 | 2.0 | 0.00 | 0.00 | 0.00 | 51 | 1013.0 |
| 20260509052809 | 56 | 167 | 3.0 | 4.0 | 0.00 | 0.00 | 0.00 | 50 | 1012.9 |
| 20260509052307 | 56 | 163 | 0.0 | 2.0 | 0.00 | 0.00 | 0.00 | 50 | 1012.9 |
| 20260509051804 | 56 | 205 | 1.0 | 2.0 | 0.00 | 0.00 | 0.00 | 50 | 1012.9 |
| 20260509051302 | 56 | 159 | 0.0 | 3.0 | 0.00 | 0.00 | 0.00 | 50 | 1012.9 |
| 20260509050758 | 57 | 169 | 1.0 | 2.0 | 0.00 | 0.00 | 0.00 | 50 | 1013.0 |
| 20260509050254 | 57 | 163 | 0.0 | 7.0 | 0.00 | 0.00 | 0.00 | 50 | 1013.2 |
| 20260509045752 | 57 | 179 | 0.0 | 4.0 | 0.00 | 0.00 | 0.00 | 50 | 1013.1 |
| 20260509045248 | 57 | 247 | 5.0 | 8.0 | 0.00 | 0.00 | 0.00 | 50 | 1013.0 |
| 20260509044746 | 57 | 170 | 2.0 | 4.0 | 0.00 | 0.00 | 0.00 | 51 | 1012.7 |
| 20260509044243 | 57 | 130 | 2.0 | 2.0 | 0.00 | 0.00 | 0.00 | 50 | 1013.0 |
| 20260509043739 | 57 | 155 | 0.0 | 2.0 | 0.00 | 0.00 | 0.00 | 50 | 1012.9 |
| 20260509043236 | 57 | 167 | 1.0 | 4.0 | 0.00 | 0.00 | 0.00 | 50 | 1013.0 |
| 20260509042732 | 57 | 155 | 0.0 | 3.0 | 0.00 | 0.00 | 0.00 | 50 | 1013.0 |
| 20260509042228 | 57 | 202 | 1.0 | 4.0 | 0.00 | 0.00 | 0.00 | 49 | 1012.7 |
| 20260509041725 | 57 | 295 | 2.0 | 3.0 | 0.00 | 0.00 | 0.00 | 49 | 1012.7 |
| 20260509041222 | 57 | 172 | 1.0 | 7.0 | 0.00 | 0.00 | 0.00 | 49 | 1012.8 |
| 20260509040721 | 57 | 132 | 0.0 | 6.0 | 0.00 | 0.00 | 0.00 | 50 | 1012.7 |
| 20260509040217 | 57 | 179 | 1.0 | 1.0 | 0.00 | 0.00 | 0.00 | 51 | 1012.9 |
| 20260509035714 | 57 | 130 | 2.0 | 2.0 | 0.00 | 0.00 | 0.00 | 51 | 1012.9 |
| 20260509035211 | 57 | 159 | 0.0 | 8.0 | 0.00 | 0.00 | 0.00 | 50 | 1012.8 |
| 20260509034708 | 57 | 151 | 0.0 | 1.0 | 0.00 | 0.00 | 0.00 | 51 | 1013.1 |
| 20260509034206 | 57 | 165 | 0.0 | 1.0 | 0.00 | 0.00 | 0.00 | 50 | 1013.0 |
| 20260509033702 | 57 | 63 | 1.0 | 2.0 | 0.00 | 0.00 | 0.00 | 50 | 1013.1 |
| 20260509033159 | 57 | 75 | 0.0 | 3.0 | 0.00 | 0.00 | 0.00 | 50 | 1013.0 |
| 20260509032657 | 57 | 148 | 0.0 | 3.0 | 0.00 | 0.00 | 0.00 | 50 | 1013.0 |
| 20260509032153 | 57 | 154 | 0.0 | 1.0 | 0.00 | 0.00 | 0.00 | 50 | 1013.2 |
| 20260509031651 | 58 | 187 | 1.0 | 4.0 | 0.00 | 0.00 | 0.00 | 49 | 1013.2 |
| 20260509031148 | 58 | 172 | 2.0 | 6.0 | 0.00 | 0.00 | 0.00 | 49 | 1013.1 |
| 20260509030646 | 58 | 123 | 3.0 | 4.0 | 0.00 | 0.00 | 0.00 | 49 | 1013.1 |
| 20260509030143 | 58 | 159 | 0.0 | 6.0 | 0.00 | 0.00 | 0.00 | 50 | 1013.3 |
| 20260509025639 | 58 | 162 | 2.0 | 6.0 | 0.00 | 0.00 | 0.00 | 49 | 1013.1 |
| 20260509025135 | 58 | 150 | 1.0 | 4.0 | 0.00 | 0.00 | 0.00 | 50 | 1013.1 |
| 20260509024630 | 58 | 85 | 2.0 | 6.0 | 0.00 | 0.00 | 0.00 | 49 | 1013.4 |
| 20260509024127 | 58 | 131 | 2.0 | 2.0 | 0.00 | 0.00 | 0.00 | 50 | 1013.3 |
| 20260509023625 | 57 | 131 | 0.0 | 2.0 | 0.00 | 0.00 | 0.00 | 52 | 1013.3 |
| 20260509023121 | 56 | 161 | 0.0 | 2.0 | 0.00 | 0.00 | 0.00 | 52 | 1013.4 |
| 20260509022618 | 56 | 167 | 1.0 | 2.0 | 0.00 | 0.00 | 0.00 | 53 | 1013.2 |
| 20260509022116 | 56 | 169 | 0.0 | 0.0 | 0.00 | 0.00 | 0.00 | 53 | 1013.2 |
| 20260509021612 | 57 | 168 | 0.0 | 1.0 | 0.00 | 0.00 | 0.00 | 53 | 1013.3 |